Regional Weather Roundup
Issued by NWS

Home | Current Version | Previous Version | Graphics & Text | Print | Product List | Glossary On
Versions: 1 2 3 4 5 6 7 8 9 10 11 12 13 14 15 16 17 18 19 20 21 22 23 24 25 26 27 28 29 30 31 32 33 34 35 36 37 38 39 40 41 42 43 44 45 46 47 48 49 50
000
ASUS43 KMPX 282210
RWRMN
WEATHER ROUNDUP FOR MINNESOTA
NATIONAL WEATHER SERVICE TWIN CITIES/CHANHASSEN MN
500 PM CDT SUN AUG 28 2016


NOTE: "FAIR" INDICATES FEW OR NO CLOUDS BELOW 12,000 FEET WITH NO
SIGNIFICANT WEATHER AND/OR OBSTRUCTIONS TO VISIBILITY. N/A MEANS
CURRENT SKY AND/OR WEATHER CONDITIONS ARE NOT AVAILABLE.

MNZ060>063-068>070-282300-
   Twin Cities Metro

CITY           SKY/WX    TMP DP  RH WIND       PRES   REMARKS
TWIN CITIES    MOSUNNY   84  66  54 S9        30.09F
ST PAUL        MOSUNNY   83  68  60 SE12      30.09F
CRYSTAL        MOSUNNY   84  65  52 S12       30.07F
BLAINE         MOSUNNY   84  68  58 S8        30.09F
LAKEVILLE      SUNNY     81  68  65 SE6       30.10F
EDEN PRAIRIE   MOSUNNY   85  68  56 S13       30.08F
LAKEVILLE      SUNNY     81  68  65 SE6       30.10F
SOUTH ST PAUL  SUNNY     83  65  53 S8        30.10S
LAKE ELMO      FAIR      81  70  69 SE10      30.11F
$$
MNZ001>005-007-008-013>017-022>024-027-028-282300-
   Northwest Minnesota

CITY           SKY/WX    TMP DP  RH WIND       PRES   REMARKS
BEMIDJI        MOSUNNY   77  65  65 SE12      30.05S
HALLOCK        MOSUNNY   82  64  54 SE13G18   29.94F
ROSEAU         CLOUDY    82  64  54 SE12      30.02S
WARROAD        SUNNY     77  68  73 E8        30.03F
THIEF RVR FALL MOSUNNY   81  66  60 SE16      29.99F
CROOKSTON      SUNNY     82  70  65 SE14      29.96S
FOSSTON        SUNNY     82  70  65 SE9G17    30.00F
DETROIT LAKES  SUNNY     81  68  65 SE16      30.01F
MOORHEAD       SUNNY     88  70  55 SE16G22   29.93F HX  92
PARK RAPIDS    SUNNY     83  64  52 SE16      30.04F
MAHNOMEN       FAIR      81  67  61 SE13      29.99S
$$
MNZ006-009>011-018-025>026-282300-
   North Central Minnesota

CITY           SKY/WX    TMP DP  RH WIND       PRES   REMARKS
BAUDETTE       MOSUNNY   77  65  66 SE10      30.05F
FLAG ISLAND    SUNNY     70  63  78 CALM      30.05S
INTL FALLS     SUNNY     74  63  68 SE9       30.10S
WASKISH          N/A     75  64  69 SE8       30.06S
BIG FORK       MOSUNNY   77  64  65 SE7       30.10F
LONGVILLE      MOSUNNY   79  66  65 SE9       30.08S
GRAND RAPIDS   PTSUNNY   77  64  64 SE8       30.12F
CRANE LAKE     SUNNY     72  63  73 S3        30.14
ORR            MOSUNNY   73  61  64 SE6       30.10S
COOK           MOSUNNY   75  61  60 SE5       30.13S
WALKER         MOCLDY    76  66  71 SE9       30.05F
$$
MNZ012-019>021-037-282300-
   Northeast Minnesota

CITY           SKY/WX    TMP DP  RH WIND       PRES   REMARKS
DULUTH         MOSUNNY   73  64  73 SE8       30.15S
ELY            SUNNY     75  59  57 CALM      30.14F
HIBBING        PTSUNNY   75  62  64 SE12      30.12F
EVELETH        SUNNY     75  59  57 SE6       30.15S
DULUTH HARBOR  SUNNY     70  64  83 E9        30.14F
TWO HARBORS    SUNNY     75  64  69 SE3       30.14S
SILVER BAY     SUNNY     72  63  73 SE3       30.15S
GRAND MARAIS     N/A     65  55  70 SW7       30.17S
G MARAIS ARPRT SUNNY     66  55  68 CALM      30.20F
$$
MNZ029>031-032-039>041-046>048-054>057-064-282300-
   West Central Minnesota

CITY           SKY/WX    TMP DP  RH WIND       PRES   REMARKS
FERGUS FALLS   SUNNY     84  72  65 S16G22    29.97F
WHEATON        SUNNY     88  75  66 S17G24    29.96F HX  97
MORRIS         SUNNY     88  72  58 SE20      29.99S HX  94
ALEXANDRIA     SUNNY     84  70  62 S20       30.04F
ELBOW LAKE     FAIR      85  73  67 S17       29.99F HAZE    HX  91
WADENA         MOSUNNY   81  70  69 SE13G20   30.03F
GLENWOOD       SUNNY     84  72  65 S17G24    30.05S
APPLETON       SUNNY     88  72  58 S15G21    29.98F HX  94
BENSON         MOSUNNY   84  72  65 S16       30.01S
ORTONVILLE     SUNNY     88  72  58 S13G20    29.97F HX  94
MADISON        SUNNY     86  72  62 S14G21    29.99S HX  92
WILLMAR        FAIR      84  73  70 SE13G18   30.05F HX  91
$$
MNZ033>034-036-042>043-049>051-058-059-282300-
   Central Minnesota

CITY           SKY/WX    TMP DP  RH WIND       PRES   REMARKS
ST CLOUD       MOSUNNY   82  72  71 S15       30.07F
SAUK CENTRE    FAIR      83  69  62 S16       30.05F
PAYNESVILLE    SUNNY     83  66  56 SE12G18   30.06F
AITKIN         MOSUNNY   81  64  57 SE9       30.09F
PINE RIVER     MOSUNNY   79  68  69 SE12G17   30.10S
BRAINERD       CLOUDY    75  68  78 SE8       30.08F
STAPLES        PTSUNNY   79  68  69 SE13      30.06S
LONG PRAIRIE   FAIR      79  72  78 E9        30.06S
LITTLE FALLS   PTSUNNY   79  70  73 SE6       30.07F
LITCHFIELD     SUNNY     84  72  65 SE6       30.07S
BUFFALO        MOSUNNY   83  67  58 SE8       30.09S
MAPLE LAKE     MOSUNNY   83  72  69 S6        30.09F
HUTCHINSON     SUNNY     83  71  65 SE9       30.08F
$$
MNZ037-044-045-052-053-282300-
   East Central Minnesota

CITY           SKY/WX    TMP DP  RH WIND       PRES   REMARKS
PRINCETON      MOSUNNY   82  72  69 SE8       30.09F
MORA           MOSUNNY   75  66  73 SE6       30.12F
CAMBRIDGE      MOSUNNY   81  68  65 SE6       30.08F
RUSH CITY      SUNNY     79  68  70 SE8       30.11F
MOOSE LAKE     PTSUNNY   77  64  65 S3        30.11F
HINCKLEY       CLOUDY    75  68  78 SE7       30.11F
CLOQUET        SUNNY     73  61  64 SE8       30.13F
MCGREGOR       CLOUDY    75  66  73 SE10      30.12S
$$
MNZ071>073-080-081-089-090-097-098-282300-
   Southwest Minnesota

CITY           SKY/WX    TMP DP  RH WIND       PRES   REMARKS
MONTEVIDEO     SUNNY     88  73  62 S16       30.02F HX  96
GRANITE FALLS  SUNNY     87  75  66 SE15      30.03F HX  97
CANBY          MOSUNNY   87  72  60 SE13G18   30.01F HX  94
MARSHALL       MOSUNNY   86  73  65 S16G23    30.02F HX  93
REDWOOD FALLS  SUNNY     85  71  63 S18       30.04F HX  90
OLIVIA         MOSUNNY   81  70  69 S12G17    30.05S
PIPESTONE      MOSUNNY   84  73  70 S9        30.05F HX  91
WINDOM         MOSUNNY   84  70  61 SE14      30.07F
WORTHINGTON    MOSUNNY   85  74  69 S9        30.08S HX  92
JACKSON          N/A     84  68  58 S8        30.09F
TRACY          SUNNY     86  73  66 S10G16    30.04F HX  93
SLAYTON        MOSUNNY   84  73  70 SE13G18   30.07F HX  91
$$
MNZ065>067-074>077-082>085-091>093-282300-
   South Central Minnesota

CITY           SKY/WX    TMP DP  RH WIND       PRES   REMARKS
MANKATO        MOSUNNY   82  68  61 S9        30.09S
NEW ULM        SUNNY     84  70  61 S13       30.07F
ST JAMES       SUNNY     81  64  57 SE8       30.08F
FAIRMONT       SUNNY     84  70  62 S10       30.09F
GLENCOE        MOSUNNY   85  72  64 SE6       30.08F HX  91
FARIBAULT      MOSUNNY   82  70  65 S6        30.11F
OWATONNA       MOSUNNY   82  66  57 SE7       30.11F
WASECA         MOSUNNY   82  68  61 S6        30.11F
ALBERT LEA     SUNNY     84  66  54 SW8       30.11S
$$
MNZ078>079-086>088-094>096-282300-
   Southeast Minnesota

CITY           SKY/WX    TMP DP  RH WIND       PRES   REMARKS
ROCHESTER      MOSUNNY   82  69  64 S6        30.14F
RED WING       MOSUNNY   82  66  57 SE7       30.09F
STANTON        MOSUNNY   82  68  61 S8        30.10S
DODGE CENTER   SUNNY     82  66  57 S6        30.13S
WINONA         MOSUNNY   79  68  69 SE8       30.13F
AUSTIN         MOSUNNY   81  68  65 SW8       30.12S
PRESTON        CLOUDY    81  67  63 SE5       30.15S
$$
ABBREVIATIONS USED IN REMARKS
   TC - TEMPERATURES IN CELSIUS
  WCI - WIND CHILL INDEX
   HX - HEAT INDEX
  VSB - VISIBILITY
$$




USA.gov is the U.S. government's official web portal to all federal, state and local government web resources and services.